| time (UTC) | temp F | wind direction | speed MPH | gust MPH | rain 1hr in | rain 24hr in | rain mn in | humidity % | barometer mb |
| 20260903213021 | 98 | 0.0 | 1.0 | 0.00 | 0.00 | 0.00 | 52 | 1018.0 | |
| 20260903212020 | 98 | 0.0 | 2.0 | 0.00 | 0.00 | 0.00 | 50 | 1018.0 | |
| 20260903211020 | 98 | 0.0 | 3.0 | 0.00 | 0.00 | 0.00 | 49 | 1017.9 | |
| 20260903210021 | 99 | 0.0 | 1.0 | 0.00 | 0.00 | 0.00 | 49 | 1017.8 | |
| 20260903205020 | 99 | 0.0 | 2.0 | 0.00 | 0.00 | 0.00 | 48 | 1018.0 | |
| 20260903204020 | 101 | 0.0 | 3.0 | 0.00 | 0.00 | 0.00 | 48 | 1018.1 | |
| 20260903203021 | 101 | 0.0 | 3.0 | 0.00 | 0.00 | 0.00 | 46 | 1018.3 | |
| 20260903202021 | 101 | 0.0 | 3.0 | 0.00 | 0.00 | 0.00 | 46 | 1018.3 | |
| 20260903201022 | 101 | 0.0 | 3.0 | 0.00 | 0.00 | 0.00 | 47 | 1018.4 | |
| 20260903200020 | 101 | 0.0 | 3.0 | 0.00 | 0.00 | 0.00 | 46 | 1018.6 | |
| 20260903195020 | 101 | 0.0 | 3.0 | 0.00 | 0.00 | 0.00 | 47 | 1018.7 | |
| 20260903194040 | 101 | 0.0 | 2.0 | 0.00 | 0.00 | 0.00 | 49 | 1018.7 | |
| 20260903193022 | 102 | 0.0 | 0.0 | 0.00 | 0.00 | 0.00 | 48 | 1019.0 | |
| 20260903192020 | 101 | 0.0 | 2.0 | 0.00 | 0.00 | 0.00 | 49 | 1019.1 | |
| 20260903191022 | 100 | 0.0 | 0.0 | 0.00 | 0.00 | 0.00 | 53 | 1019.2 | |
| 20260903190022 | 100 | 0.0 | 1.0 | 0.00 | 0.00 | 0.00 | 53 | 1019.2 | |
| 20260903185020 | 98 | 0.0 | 2.0 | 0.00 | 0.00 | 0.00 | 54 | 1019.4 | |
| 20260903184022 | 97 | 0.0 | 1.0 | 0.00 | 0.00 | 0.00 | 55 | 1019.4 | |
| 20260903183022 | 97 | 0.0 | 0.0 | 0.00 | 0.00 | 0.00 | 56 | 1019.6 | |
| 20260903182040 | 96 | 0.0 | 1.0 | 0.00 | 0.00 | 0.00 | 60 | 1019.6 | |
| 20260903181020 | 96 | 0.0 | 0.0 | 0.00 | 0.00 | 0.00 | 61 | 1019.6 | |
| 20260903180023 | 94 | 0.0 | 0.0 | 0.00 | 0.00 | 0.00 | 58 | 1019.7 | |
| 20260903175022 | 94 | 0.0 | 0.0 | 0.00 | 0.00 | 0.00 | 61 | 1019.8 | |
| 20260903174522 | 94 | 0.0 | 0.0 | 0.00 | 0.00 | 0.00 | 63 | 1019.7 | |
| 20260903173522 | 94 | 0.0 | 1.0 | 0.00 | 0.00 | 0.00 | 59 | 1019.9 | |
| 20260903172523 | 95 | 0.0 | 0.0 | 0.00 | 0.00 | 0.00 | 60 | 1020.0 | |
| 20260903171522 | 95 | 0.0 | 1.0 | 0.00 | 0.00 | 0.00 | 60 | 1020.1 | |
| 20260903170522 | 96 | 0.0 | 0.0 | 0.00 | 0.00 | 0.00 | 57 | 1020.2 | |
| 20260903165522 | 98 | 0.0 | 4.0 | 0.00 | 0.00 | 0.00 | 52 | 1020.3 | |
| 20260903164522 | 99 | 0.0 | 2.0 | 0.00 | 0.00 | 0.00 | 54 | 1020.6 | |
| 20260903163522 | 99 | 0.0 | 2.0 | 0.00 | 0.00 | 0.00 | 53 | 1020.6 | |
| 20260903162522 | 98 | 0.0 | 1.0 | 0.00 | 0.00 | 0.00 | 54 | 1020.7 | |
| 20260903161522 | 98 | 0.0 | 1.0 | 0.00 | 0.00 | 0.00 | 56 | 1020.8 | |
| 20260903160542 | 99 | 0.0 | 2.0 | 0.00 | 0.00 | 0.00 | 56 | 1020.9 | |
| 20260903155524 | 99 | 0.0 | 2.0 | 0.00 | 0.00 | 0.00 | 55 | 1020.9 | |
| 20260903154543 | 100 | 0.0 | 1.0 | 0.00 | 0.00 | 0.00 | 57 | 1021.0 | |
| 20260903153542 | 99 | 0.0 | 1.0 | 0.00 | 0.00 | 0.00 | 59 | 1021.1 | |
| 20260903152522 | 97 | 0.0 | 1.0 | 0.00 | 0.00 | 0.00 | 63 | 1021.1 | |
| 20260903151522 | 96 | 0.0 | 1.0 | 0.00 | 0.00 | 0.00 | 63 | 1021.2 | |
| 20260903150542 | 96 | 0.0 | 1.0 | 0.00 | 0.00 | 0.00 | 62 | 1021.1 | |
| 20260903145520 | 96 | 0.0 | 2.0 | 0.00 | 0.00 | 0.00 | 61 | 1021.3 | |
| 20260903144522 | 95 | 0.0 | 1.0 | 0.00 | 0.00 | 0.00 | 63 | 1021.3 | |
| 20260903143524 | 96 | 0.0 | 1.0 | 0.00 | 0.00 | 0.00 | 65 | 1021.3 | |
| 20260903142522 | 94 | 0.0 | 2.0 | 0.00 | 0.00 | 0.00 | 67 | 1021.2 | |
| 20260903141522 | 93 | 0.0 | 2.0 | 0.00 | 0.00 | 0.00 | 67 | 1021.3 | |
| 20260903140522 | 92 | 0.0 | 1.0 | 0.00 | 0.00 | 0.00 | 70 | 1021.1 | |
| 20260903135522 | 91 | 0.0 | 0.0 | 0.00 | 0.00 | 0.00 | 70 | 1021.2 | |
| 20260903134522 | 90 | 0.0 | 2.0 | 0.00 | 0.00 | 0.00 | 71 | 1021.2 | |
| 20260903133522 | 90 | 0.0 | 1.0 | 0.00 | 0.00 | 0.00 | 71 | 1021.1 | |
| 20260903132521 | 88 | 0.0 | 1.0 | 0.00 | 0.00 | 0.00 | 76 | 1021.0 | |
| 20260903131522 | 87 | 0.0 | 1.0 | 0.00 | 0.00 | 0.00 | 78 | 1021.0 | |
| 20260903130522 | 85 | 0.0 | 2.0 | 0.00 | 0.00 | 0.00 | 81 | 1021.2 | |
| 20260903125522 | 84 | 0.0 | 1.0 | 0.00 | 0.00 | 0.00 | 83 | 1021.2 | |
| 20260903124521 | 82 | 0.0 | 1.0 | 0.00 | 0.00 | 0.00 | 86 | 1021.1 | |
| 20260903123522 | 80 | 0.0 | 2.0 | 0.00 | 0.00 | 0.00 | 90 | 1021.1 | |
| 20260903122522 | 79 | 0.0 | 1.0 | 0.00 | 0.00 | 0.00 | 91 | 1021.1 | |
| 20260903121522 | 78 | 0.0 | 0.0 | 0.00 | 0.00 | 0.00 | 91 | 1021.1 | |
| 20260903120522 | 78 | 0.0 | 0.0 | 0.00 | 0.00 | 0.00 | 91 | 1021.1 | |
| 20260903115522 | 77 | 0.0 | 0.0 | 0.00 | 0.00 | 0.00 | 91 | 1021.1 | |
| 20260903114541 | 77 | 0.0 | 0.0 | 0.00 | 0.00 | 0.00 | 92 | 1021.0 | |
| 20260903113521 | 77 | 0.0 | 0.0 | 0.00 | 0.00 | 0.00 | 93 | 1020.8 | |
| 20260903112701 | 76 | 0.0 | 0.0 | 0.00 | 0.00 | 0.00 | 94 | 1020.8 | |
| 20260903112021 | 76 | 0.0 | 0.0 | 0.00 | 0.00 | 0.00 | 94 | 1020.7 | |
| 20260903111021 | 75 | 0.0 | 0.0 | 0.00 | 0.00 | 0.00 | 94 | 1020.5 | |
| 20260903105021 | 75 | 0.0 | 0.0 | 0.00 | 0.00 | 0.00 | 94 | 1020.3 | |
| 20260903104021 | 75 | 0.0 | 0.0 | 0.00 | 0.00 | 0.00 | 93 | 1020.2 | |
| 20260903103041 | 75 | 0.0 | 0.0 | 0.00 | 0.00 | 0.00 | 93 | 1020.2 | |
| 20260903102022 | 75 | 0.0 | 0.0 | 0.00 | 0.00 | 0.00 | 93 | 1020.2 | |
| 20260903101021 | 75 | 0.0 | 0.0 | 0.00 | 0.00 | 0.00 | 92 | 1020.2 | |
| 20260903100021 | 75 | 0.0 | 0.0 | 0.00 | 0.00 | 0.00 | 92 | 1020.0 | |
| 20260903095041 | 75 | 0.0 | 0.0 | 0.00 | 0.00 | 0.00 | 92 | 1019.9 | |
| 20260903094041 | 76 | 0.0 | 0.0 | 0.00 | 0.00 | 0.00 | 92 | 1019.9 | |
| 20260903093101 | 76 | 0.0 | 0.0 | 0.00 | 0.00 | 0.00 | 92 | 1020.0 | |
| 20260903092021 | 76 | 0.0 | 0.0 | 0.00 | 0.00 | 0.00 | 91 | 1019.9 | |
| 20260903091021 | 76 | 0.0 | 0.0 | 0.00 | 0.00 | 0.00 | 92 | 1019.8 | |
| 20260903090021 | 76 | 0.0 | 0.0 | 0.00 | 0.00 | 0.00 | 91 | 1019.9 | |
| 20260903085021 | 76 | 0.0 | 0.0 | 0.00 | 0.00 | 0.00 | 90 | 1019.9 | |
| 20260903084021 | 76 | 0.0 | 0.0 | 0.00 | 0.00 | 0.00 | 90 | 1019.8 | |
| 20260903083041 | 77 | 0.0 | 0.0 | 0.00 | 0.00 | 0.00 | 90 | 1019.6 | |
| 20260903082041 | 77 | 0.0 | 0.0 | 0.00 | 0.00 | 0.00 | 90 | 1019.7 | |
| 20260903081021 | 77 | 0.0 | 0.0 | 0.00 | 0.00 | 0.00 | 89 | 1019.5 | |
| 20260903080021 | 77 | 0.0 | 0.0 | 0.00 | 0.00 | 0.00 | 89 | 1019.5 | |
| 20260903075021 | 77 | 0.0 | 0.0 | 0.00 | 0.00 | 0.00 | 89 | 1019.5 | |
| 20260903074021 | 77 | 0.0 | 0.0 | 0.00 | 0.00 | 0.00 | 89 | 1019.5 | |
| 20260903073022 | 77 | 0.0 | 0.0 | 0.00 | 0.00 | 0.00 | 88 | 1019.5 | |
| 20260903072021 | 77 | 0.0 | 0.0 | 0.00 | 0.00 | 0.00 | 88 | 1019.4 | |
| 20260903071021 | 78 | 0.0 | 0.0 | 0.00 | 0.00 | 0.00 | 88 | 1019.5 | |
| 20260903070021 | 78 | 0.0 | 0.0 | 0.00 | 0.00 | 0.00 | 87 | 1019.5 | |
| 20260903065041 | 78 | 0.0 | 0.0 | 0.00 | 0.00 | 0.00 | 87 | 1019.7 | |
| 20260903064148 | 78 | 0.0 | 0.0 | 0.00 | 0.00 | 0.00 | 86 | 1019.8 | |
| 20260903063021 | 78 | 0.0 | 0.0 | 0.00 | 0.00 | 0.00 | 86 | 1019.9 | |
| 20260903062021 | 79 | 0.0 | 0.0 | 0.00 | 0.00 | 0.00 | 86 | 1019.8 | |
| 20260903061021 | 79 | 0.0 | 0.0 | 0.00 | 0.00 | 0.00 | 86 | 1019.9 | |
| 20260903060021 | 79 | 0.0 | 0.0 | 0.00 | 0.00 | 0.00 | 86 | 1020.1 | |
| 20260903055041 | 79 | 0.0 | 0.0 | 0.00 | 0.00 | 0.00 | 85 | 1020.2 | |
| 20260903054041 | 79 | 0.0 | 0.0 | 0.00 | 0.00 | 0.00 | 85 | 1020.2 | |
| 20260903053021 | 80 | 0.0 | 0.0 | 0.00 | 0.00 | 0.00 | 84 | 1020.2 | |
| 20260903052021 | 80 | 0.0 | 0.0 | 0.00 | 0.00 | 0.00 | 84 | 1020.1 | |
| 20260903051021 | 80 | 0.0 | 0.0 | 0.00 | 0.00 | 0.00 | 84 | 1020.1 | |
| 20260903050041 | 80 | 0.0 | 0.0 | 0.00 | 0.00 | 0.00 | 83 | 1020.1 | |
| 20260903045020 | 80 | 0.0 | 0.0 | 0.00 | 0.00 | 0.00 | 83 | 1020.1 | |
| 20260903044021 | 81 | 0.0 | 0.0 | 0.00 | 0.00 | 0.00 | 82 | 1020.1 | |
| 20260903043021 | 81 | 0.0 | 0.0 | 0.00 | 0.00 | 0.00 | 81 | 1020.0 | |
| 20260903042021 | 81 | 0.0 | 0.0 | 0.00 | 0.00 | 0.00 | 81 | 1020.2 | |
| 20260903041022 | 82 | 0.0 | 0.0 | 0.00 | 0.00 | 0.00 | 80 | 1020.2 | |
| 20260903040024 | 82 | 0.0 | 0.0 | 0.00 | 0.00 | 0.00 | 79 | 1020.2 | |
| 20260903035021 | 82 | 0.0 | 0.0 | 0.00 | 0.00 | 0.00 | 78 | 1020.2 | |
| 20260903034020 | 83 | 0.0 | 0.0 | 0.00 | 0.00 | 0.00 | 77 | 1020.2 | |
| 20260903033021 | 83 | 0.0 | 0.0 | 0.00 | 0.00 | 0.00 | 77 | 1020.2 | |
| 20260903032101 | 83 | 0.0 | 0.0 | 0.00 | 0.00 | 0.00 | 76 | 1020.2 | |
| 20260903031040 | 84 | 0.0 | 0.0 | 0.00 | 0.00 | 0.00 | 76 | 1020.2 | |
| 20260903030041 | 84 | 0.0 | 0.0 | 0.00 | 0.00 | 0.00 | 75 | 1020.1 | |
| 20260903025021 | 84 | 0.0 | 0.0 | 0.00 | 0.00 | 0.00 | 75 | 1020.1 | |
| 20260903024020 | 85 | 0.0 | 0.0 | 0.00 | 0.00 | 0.00 | 73 | 1020.2 | |
| 20260903023021 | 85 | 0.0 | 0.0 | 0.00 | 0.00 | 0.00 | 72 | 1020.0 | |
| 20260903022020 | 86 | 0.0 | 0.0 | 0.00 | 0.00 | 0.00 | 71 | 1020.3 | |
| 20260903021021 | 87 | 0.0 | 0.0 | 0.00 | 0.00 | 0.00 | 70 | 1020.2 | |
| 20260903020021 | 87 | 0.0 | 0.0 | 0.00 | 0.00 | 0.00 | 69 | 1020.3 | |
| 20260903015020 | 88 | 0.0 | 0.0 | 0.00 | 0.00 | 0.00 | 68 | 1020.2 | |
| 20260903014020 | 88 | 0.0 | 3.0 | 0.00 | 0.00 | 0.00 | 68 | 1020.2 | |
| 20260903013022 | 88 | 0.0 | 1.0 | 0.00 | 0.00 | 0.00 | 68 | 1020.2 | |
| 20260903012101 | 88 | 0.0 | 3.0 | 0.00 | 0.00 | 0.00 | 68 | 1020.6 | |
| 20260903011020 | 88 | 0.0 | 1.0 | 0.00 | 0.00 | 0.00 | 67 | 1020.6 | |
| 20260903010022 | 88 | 0.0 | 1.0 | 0.00 | 0.00 | 0.00 | 66 | 1020.3 | |
| 20260903005022 | 89 | 0.0 | 0.0 | 0.00 | 0.00 | 0.00 | 64 | 1019.9 | |
| 20260903004020 | 89 | 0.0 | 0.0 | 0.00 | 0.00 | 0.00 | 64 | 1019.8 | |
| 20260903003020 | 89 | 0.0 | 0.0 | 0.00 | 0.00 | 0.00 | 64 | 1019.5 | |
| 20260903002042 | 90 | 0.0 | 0.0 | 0.00 | 0.00 | 0.00 | 63 | 1019.5 | |
| 20260903001103 | 90 | 0.0 | 0.0 | 0.00 | 0.00 | 0.00 | 63 | 1019.4 | |
| 20260903000022 | 91 | 0.0 | 0.0 | 0.00 | 0.00 | 0.00 | 62 | 1019.3 | |
| 20260902235040 | 91 | 0.0 | 0.0 | 0.00 | 0.00 | 0.00 | 61 | 1019.3 | |
| 20260902234020 | 92 | 0.0 | 0.0 | 0.00 | 0.00 | 0.00 | 61 | 1019.3 | |
| 20260902233020 | 92 | 0.0 | 0.0 | 0.00 | 0.00 | 0.00 | 60 | 1019.4 | |
| 20260902232042 | 93 | 0.0 | 0.0 | 0.00 | 0.00 | 0.00 | 58 | 1019.5 | |
| 20260902231022 | 93 | 0.0 | 1.0 | 0.00 | 0.00 | 0.00 | 59 | 1019.5 | |
| 20260902230022 | 94 | 0.0 | 1.0 | 0.00 | 0.00 | 0.00 | 58 | 1019.4 | |
| 20260902225020 | 94 | 0.0 | 0.0 | 0.00 | 0.00 | 0.00 | 58 | 1019.4 | |
| 20260902224022 | 94 | 0.0 | 1.0 | 0.00 | 0.00 | 0.00 | 56 | 1019.2 | |
| 20260902223102 | 95 | 0.0 | 0.0 | 0.00 | 0.00 | 0.00 | 56 | 1019.4 | |
| 20260902222042 | 95 | 0.0 | 2.0 | 0.00 | 0.00 | 0.00 | 55 | 1019.2 | |
| 20260902221041 | 95 | 0.0 | 3.0 | 0.00 | 0.00 | 0.00 | 55 | 1019.1 | |
| 20260902220023 | 96 | 0.0 | 1.0 | 0.00 | 0.00 | 0.00 | 54 | 1019.2 | |
| 20260902215022 | 96 | 0.0 | 3.0 | 0.00 | 0.00 | 0.00 | 54 | 1019.3 | |
| 20260902214022 | 96 | 0.0 | 3.0 | 0.00 | 0.00 | 0.00 | 53 | 1019.4 |